GW0819 Weather Reports


Display with metric or nautical units.
time (UTC)temp
F
wind
direction
speed
MPH
gust
MPH
rain 1hr
in
rain 24hr
in
rain mn
in
humidity
%
barometer
mb
20260504192427 79 278 11.0 18.0 0.00 0.00 0.00 26 1006.3
20260504191926 78 260 20.0 24.0 0.00 0.00 0.00 26 1006.0
20260504191424 79 248 11.0 17.0 0.00 0.00 0.00 24 1006.2
20260504190918 79 241 24.0 24.0 0.00 0.00 0.00 25 1006.4
20260504190414 77 295 15.0 23.0 0.00 0.00 0.00 26 1006.3
20260504185911 78 277 19.0 22.0 0.00 0.00 0.00 26 1006.5
20260504185409 78 253 8.0 25.0 0.00 0.00 0.00 26 1006.5
20260504184904 78 245 19.0 36.0 0.00 0.00 0.00 25 1006.5
20260504184400 79 258 20.0 24.0 0.00 0.00 0.00 25 1006.3
20260504183856 80 246 20.0 23.0 0.00 0.00 0.00 25 1006.5
20260504183354 78 288 14.0 25.0 0.00 0.00 0.00 25 1006.5
20260504182851 78 263 14.0 19.0 0.00 0.00 0.00 25 1006.4
20260504182349 79 252 16.0 21.0 0.00 0.00 0.00 25 1006.7
20260504181845 78 285 17.0 26.0 0.00 0.00 0.00 26 1007.0
20260504181343 78 275 16.0 22.0 0.00 0.00 0.00 26 1006.9
20260504180841 77 293 22.0 25.0 0.00 0.00 0.00 27 1006.9
20260504180339 79 241 26.0 33.0 0.00 0.00 0.00 26 1007.2
20260504175837 78 273 14.0 24.0 0.00 0.00 0.00 29 1007.2
20260504175334 79 265 12.0 30.0 0.00 0.00 0.00 28 1007.3
20260504174832 78 254 17.0 26.0 0.00 0.00 0.00 29 1007.3
20260504174329 76 275 13.0 24.0 0.00 0.00 0.00 31 1007.3
20260504173826 78 274 17.0 21.0 0.00 0.00 0.00 30 1007.4
20260504173323 77 265 11.0 17.0 0.00 0.00 0.00 32 1007.5
20260504172820 77 264 18.0 23.0 0.00 0.00 0.00 32 1007.4
20260504172316 76 255 18.0 21.0 0.00 0.00 0.00 33 1007.7
20260504171812 77 275 16.0 24.0 0.00 0.00 0.00 31 1007.5
20260504171310 76 268 15.0 25.0 0.00 0.00 0.00 33 1007.9
20260504170807 77 261 14.0 25.0 0.00 0.00 0.00 32 1007.8
20260504170304 77 255 19.0 24.0 0.00 0.00 0.00 32 1008.0
20260504160222 73 260 21.0 29.0 0.00 0.00 0.00 37 1008.6
20260504150652 69 257 17.0 20.0 0.00 0.00 0.00 46 1008.9
20260504150150 68 253 15.0 22.0 0.00 0.00 0.00 47 1008.8
20260504141118 61 261 14.0 18.0 0.00 0.00 0.00 62 1008.8
20260504140615 61 251 14.0 17.0 0.00 0.00 0.00 64 1008.9
20260504140111 60 261 17.0 21.0 0.00 0.00 0.00 65 1008.9
20260504130539 57 252 23.0 27.0 0.00 0.00 0.00 70 1008.0
20260504110426 55 245 16.0 20.0 0.00 0.00 0.00 72 1007.5
20260504100349 55 248 15.0 18.0 0.00 0.00 0.00 68 1007.8
20260504081742 57 248 11.0 16.0 0.00 0.00 0.00 65 1009.0
20260504081238 57 238 8.0 9.0 0.00 0.00 0.00 65 1009.0
20260504080735 57 242 10.0 13.0 0.00 0.00 0.00 64 1009.1
20260504080232 58 242 7.0 14.0 0.00 0.00 0.00 63 1008.9
20260504070159 57 234 13.0 19.0 0.00 0.00 0.00 65 1009.6
20260504060120 58 223 13.0 18.0 0.00 0.00 0.00 63 1010.1
20260504050548 58 205 11.0 12.0 0.00 0.00 0.00 60 1010.4
20260504045542 59 193 9.0 13.0 0.00 0.00 0.00 58 1010.1
20260504045037 59 201 10.0 12.0 0.00 0.00 0.00 57 1010.1
20260504044535 60 203 12.0 13.0 0.00 0.00 0.00 57 1010.0
20260504044032 60 197 10.0 14.0 0.00 0.00 0.00 56 1010.4
20260504043529 60 205 11.0 13.0 0.00 0.00 0.00 55 1010.4
20260504043026 61 197 12.0 12.0 0.00 0.00 0.00 54 1010.6
20260504042523 61 199 10.0 15.0 0.00 0.00 0.00 53 1010.3
20260504042020 61 196 11.0 13.0 0.00 0.00 0.00 53 1010.5
20260504041516 62 201 12.0 16.0 0.00 0.00 0.00 51 1010.5
20260504041012 62 186 12.0 18.0 0.00 0.00 0.00 51 1010.4
20260504040510 63 179 12.0 17.0 0.00 0.00 0.00 50 1010.5
20260504040007 62 197 10.0 13.0 0.00 0.00 0.00 51 1010.3
20260504035504 62 193 10.0 12.0 0.00 0.00 0.00 51 1010.4
20260504034959 62 187 9.0 11.0 0.00 0.00 0.00 50 1010.4
20260504034457 62 198 9.0 12.0 0.00 0.00 0.00 49 1010.4
20260504033954 62 199 9.0 12.0 0.00 0.00 0.00 48 1010.3
20260504033452 63 199 8.0 12.0 0.00 0.00 0.00 47 1010.3
20260504032949 63 193 8.0 13.0 0.00 0.00 0.00 47 1010.3
20260504032446 63 198 7.0 11.0 0.00 0.00 0.00 46 1010.4
20260504031942 64 199 10.0 13.0 0.00 0.00 0.00 46 1010.1
20260504031439 64 200 12.0 13.0 0.00 0.00 0.00 45 1010.1
20260504030936 64 206 10.0 15.0 0.00 0.00 0.00 44 1010.1
20260504030433 65 203 12.0 15.0 0.00 0.00 0.00 44 1010.0
20260504025929 65 204 13.0 15.0 0.00 0.00 0.00 43 1010.1
20260504025426 65 200 10.0 15.0 0.00 0.00 0.00 42 1010.1
20260504024923 65 206 10.0 12.0 0.00 0.00 0.00 42 1010.4
20260504024420 65 205 13.0 14.0 0.00 0.00 0.00 41 1010.1
20260504023917 65 208 13.0 16.0 0.00 0.00 0.00 41 1010.1
20260504023414 66 205 9.0 16.0 0.00 0.00 0.00 41 1009.7
20260504022909 66 210 15.0 20.0 0.00 0.00 0.00 40 1009.9
20260504022406 66 217 14.0 18.0 0.00 0.00 0.00 40 1010.0
20260504021903 66 208 14.0 21.0 0.00 0.00 0.00 39 1009.7
20260504021400 66 210 12.0 17.0 0.00 0.00 0.00 39 1009.8
20260504020857 67 213 14.0 19.0 0.00 0.00 0.00 38 1009.6
20260504020353 67 213 15.0 16.0 0.00 0.00 0.00 37 1009.6
20260504015849 67 220 13.0 18.0 0.00 0.00 0.00 37 1009.7
20260504015346 67 221 14.0 16.0 0.00 0.00 0.00 37 1009.5
20260504014842 68 223 14.0 17.0 0.00 0.00 0.00 36 1009.4
20260504014338 68 223 16.0 18.0 0.00 0.00 0.00 35 1009.6
20260504013836 68 216 15.0 16.0 0.00 0.00 0.00 35 1009.1
20260504013334 68 219 16.0 17.0 0.00 0.00 0.00 34 1009.5
20260504012830 69 229 12.0 15.0 0.00 0.00 0.00 33 1009.8
20260504012328 69 228 13.0 17.0 0.00 0.00 0.00 33 1009.6
20260504011825 70 225 11.0 20.0 0.00 0.00 0.00 32 1009.6
20260504011321 70 217 13.0 20.0 0.00 0.00 0.00 32 1009.6
20260504010817 70 229 20.0 25.0 0.00 0.00 0.00 32 1009.6
20260504010313 71 222 16.0 21.0 0.00 0.00 0.00 31 1009.5
20260504005810 71 230 20.0 26.0 0.00 0.00 0.00 31 1009.6
20260504005307 71 227 18.0 22.0 0.00 0.00 0.00 31 1009.7
20260504004805 71 223 15.0 18.0 0.00 0.00 0.00 31 1009.4
20260504004302 71 213 12.0 17.0 0.00 0.00 0.00 31 1009.8
20260504003758 71 205 15.0 20.0 0.00 0.00 0.00 31 1009.8
20260504003255 72 231 17.0 18.0 0.00 0.00 0.00 30 1009.7
20260504002752 72 229 18.0 26.0 0.00 0.00 0.00 29 1009.8
20260504002249 72 247 16.0 23.0 0.00 0.00 0.00 29 1010.0
20260504001746 72 238 15.0 23.0 0.00 0.00 0.00 29 1009.9
20260504001243 72 230 15.0 21.0 0.00 0.00 0.00 29 1010.1
20260504000740 72 228 13.0 21.0 0.00 0.00 0.00 29 1009.9
20260504000237 73 228 21.0 24.0 0.00 0.00 0.00 27 1010.3
20260503235735 72 234 18.0 26.0 0.00 0.00 0.00 28 1010.1
20260503235232 72 245 17.0 19.0 0.00 0.00 0.00 26 1010.4
20260503234730 72 223 20.0 22.0 0.00 0.00 0.00 28 1010.3
20260503234228 72 228 26.0 28.0 0.00 0.00 0.00 29 1010.3
20260503233725 73 244 24.0 27.0 0.00 0.00 0.00 28 1010.4
20260503233220 72 243 16.0 27.0 0.00 0.00 0.00 29 1010.5
20260503232717 73 243 21.0 27.0 0.00 0.00 0.00 28 1010.7
20260503232214 73 240 27.0 28.0 0.00 0.00 0.00 28 1010.4
20260503231713 71 241 25.0 30.0 0.00 0.00 0.00 29 1010.5
20260503231209 71 239 30.0 32.0 0.00 0.00 0.00 29 1010.4
20260503230705 71 243 25.0 32.0 0.00 0.00 0.00 28 1010.5
20260503230203 72 231 17.0 26.0 0.00 0.00 0.00 29 1010.3
20260503225700 72 244 14.0 25.0 0.00 0.00 0.00 28 1010.5
20260503225159 71 251 24.0 31.0 0.00 0.00 0.00 29 1010.8
20260503224657 71 223 23.0 28.0 0.00 0.00 0.00 29 1010.7
20260503224155 72 233 22.0 29.0 0.00 0.00 0.00 30 1010.8
20260503223653 72 231 23.0 28.0 0.00 0.00 0.00 30 1010.9
20260503223149 72 228 25.0 30.0 0.00 0.00 0.00 29 1011.1
20260503222646 71 238 22.0 26.0 0.00 0.00 0.00 28 1010.9
20260503222144 72 249 21.0 35.0 0.00 0.00 0.00 28 1011.4
20260503221642 72 223 27.0 32.0 0.00 0.00 0.00 31 1011.2
20260503221139 71 200 20.0 26.0 0.00 0.00 0.00 32 1011.4
20260503220636 72 252 19.0 23.0 0.00 0.00 0.00 32 1011.1
20260503220132 72 244 18.0 30.0 0.00 0.00 0.00 31 1011.5
20260503215630 72 243 24.0 33.0 0.00 0.00 0.00 30 1011.4
20260503215126 71 208 20.0 28.0 0.00 0.00 0.00 31 1011.3
20260503214625 71 219 23.0 27.0 0.00 0.00 0.00 30 1011.8
20260503214120 71 218 18.0 29.0 0.00 0.00 0.00 30 1012.0
20260503213615 71 239 20.0 37.0 0.00 0.00 0.00 31 1011.8
20260503213110 72 236 26.0 27.0 0.00 0.00 0.00 29 1011.8
20260503212608 72 226 28.0 35.0 0.00 0.00 0.00 29 1012.2
20260503212105 71 214 19.0 28.0 0.00 0.00 0.00 31 1012.1
20260503211603 71 229 24.0 35.0 0.00 0.00 0.00 32 1012.5
20260503211058 72 228 24.0 31.0 0.00 0.00 0.00 31 1012.4
20260503210555 71 234 23.0 31.0 0.00 0.00 0.00 30 1012.9
20260503210050 71 238 30.0 32.0 0.00 0.00 0.00 29 1012.9
20260503205547 71 243 27.0 34.0 0.00 0.00 0.00 27 1012.6
20260503205043 71 243 24.0 26.0 0.00 0.00 0.00 26 1013.0
20260503204541 71 220 22.0 29.0 0.00 0.00 0.00 30 1013.0
20260503204038 71 247 24.0 33.0 0.00 0.00 0.00 30 1013.1
20260503203535 72 229 19.0 31.0 0.00 0.00 0.00 27 1013.1
20260503203032 71 232 29.0 34.0 0.00 0.00 0.00 29 1013.4
20260503202530 73 233 23.0 31.0 0.00 0.00 0.00 25 1013.4
20260503202028 72 219 17.0 30.0 0.00 0.00 0.00 26 1013.7
20260503201526 71 238 27.0 39.0 0.00 0.00 0.00 28 1013.9
20260503201022 73 217 13.0 25.0 0.00 0.00 0.00 27 1013.6
20260503200519 71 236 19.0 22.0 0.00 0.00 0.00 30 1013.6
20260503200016 72 234 18.0 32.0 0.00 0.00 0.00 29 1014.0
20260503195513 72 238 26.0 35.0 0.00 0.00 0.00 29 1014.0
20260503195009 71 240 22.0 28.0 0.00 0.00 0.00 27 1014.1
20260503194507 72 208 19.0 24.0 0.00 0.00 0.00 29 1014.0
20260503194006 71 206 20.0 23.0 0.00 0.00 0.00 29 1014.2
20260503193503 70 250 21.0 27.0 0.00 0.00 0.00 28 1014.5
20260503192958 69 204 14.0 20.0 0.00 0.00 0.00 31 1014.2